Flag for Germany Weather past 2 weeks in Fehmarn (Puttgarden), Schleswig-Holstein, Germany

Now
73 °F

Passing clouds.


Feels Like: 75 °F
Forecast: 66 / 74 °F
Wind: 7 mph from East

Location: Westermarkelsdorf

Current Time: Jul 22, 2014 at 1:42:50 PM

Latest Report: Jul 22, 2014 at 1:00 PM


Visibility: 7 mi

Pressure: 30.15 "Hg

Humidity: 69%

Dew point: 62 °F

Location of Fehmarn (Puttgarden)Location

Historic Weather in Fehmarn (Puttgarden) — Graph

°F

Fehmarn (Puttgarden) temperature yesterday

Maximum temperature yesterday: 72 °F (at 3:00 PM)
Minimum temperature yesterday: 65 °F (at 5:00 AM)
Average temperature yesterday: 69 °F

Past Weeks' High & Low Weather Summary

 TemperatureHumidityPressure
High78 °F (Jul 18, 3:00 PM)97% (Jul 14, 8:00 AM)30.21 "Hg (Jul 14, 8:00 AM)
Low56 °F (Jul 14, 4:00 AM)43% (Jul 18, 3:00 PM)29.59 "Hg (Jul 14, 6:00 AM)
Average67 °F78%29.98 "Hg
* Reported Jul 7 12:00 Noon — Jul 22 12:00 Noon, Fehmarn (Puttgarden), Weather by CustomWeather, © 2014

Note: Actual official high and low records may vary slightly from our data, if they occured in-between our weather recording intervals... More about our weather records

Advertising

Fehmarn (Puttgarden) weather history for previous 24 hours

 ConditionsComfort  
Time TempWeatherWind HumidityBarometerVisibility
12:00 PM
Jul 22
74 °FSunny.7 mph67%30.14 "Hg6 mi
10:00 AM72 °FSunny.3 mph71%30.13 "Hg13 mi
9:00 AM71 °FSunny.6 mph73%30.13 "Hg8 mi
8:00 AM69 °FPassing clouds.7 mph78%30.11 "Hg6 mi
7:00 AM67 °FPassing clouds.7 mph85%30.10 "Hg7 mi
6:00 AM66 °FSunny.7 mph90%30.09 "Hg10 mi
4:00 AM66 °FPassing clouds.8 mph90%30.08 "Hg8 mi
3:00 AM65 °FClear.7 mph89%30.08 "Hg9 mi
2:00 AM65 °FClear.7 mph86%30.08 "Hg14 mi
1:00 AM66 °FClear.7 mph85%30.07 "Hg12 mi
12:00 AM66 °FClear.7 mph85%30.06 "Hg10 mi
10:00 PM
Jul 21
67 °FPassing clouds.8 mph86%30.04 "Hg9 mi
9:00 PM69 °FPassing clouds.7 mph77%30.03 "Hg16 mi
8:00 PM70 °FSunny.7 mph76%30.02 "Hg12 mi
7:00 PM71 °FPassing clouds.8 mph74%30.02 "Hg5 mi
6:00 PM72 °FSunny.9 mph72%30.01 "Hg3 mi
4:00 PM72 °FPassing clouds.12 mph76%30.00 "Hg5 mi
3:00 PM72 °FPassing clouds.12 mph78%29.99 "Hg4 mi
2:00 PM72 °FSunny.12 mph77%29.99 "Hg3 mi
1:00 PM72 °FPassing clouds.12 mph78%29.98 "Hg2 mi
Weather by CustomWeather, © 2014

See weather overviewHow to use our weather pages